owner,sensor,date,latitude,longitude,vertical_datum,mass_concentration_of_oxygen_in_sea_water,qcFlag 
DISL,ioos:station:DISL:KATA:1,2011-05-01T00:00:00Z,30.2583,-88.2131,4.114,2.15,1111122 
DISL,ioos:station:DISL:KATA:1,2011-05-01T00:30:00Z,30.2583,-88.2131,4.128,2.2,1111122 
DISL,ioos:station:DISL:KATA:1,2011-05-01T01:00:00Z,30.2583,-88.2131,4.138,1.92,1111122 
DISL,ioos:station:DISL:KATA:1,2011-05-01T01:30:00Z,30.2583,-88.2131,4.144,2.04,1111122 
DISL,ioos:station:DISL:KATA:1,2011-05-01T02:00:00Z,30.2583,-88.2131,4.163,2.41,1111122 
DISL,ioos:station:DISL:KATA:1,2011-05-01T02:30:00Z,30.2583,-88.2131,4.182,2.57,1111122 
DISL,ioos:station:DISL:KATA:1,2011-05-01T03:00:00Z,30.2583,-88.2131,4.195,2.57,1111122 
DISL,ioos:station:DISL:KATA:1,2011-05-01T03:30:00Z,30.2583,-88.2131,4.2,2.58,1111122 
DISL,ioos:station:DISL:KATA:1,2011-05-01T04:00:00Z,30.2583,-88.2131,4.205,2.49,1111122 
DISL,ioos:station:DISL:KATA:1,2011-05-01T04:30:00Z,30.2583,-88.2131,4.227,2.51,1111122 
DISL,ioos:station:DISL:KATA:1,2011-05-01T05:00:00Z,30.2583,-88.2131,4.257,2.34,1111122 
DISL,ioos:station:DISL:KATA:1,2011-05-01T05:30:00Z,30.2583,-88.2131,4.295,2.27,1111122 
DISL,ioos:station:DISL:KATA:1,2011-05-01T06:00:00Z,30.2583,-88.2131,4.332,2.21,1111122 
DISL,ioos:station:DISL:KATA:1,2011-05-01T06:30:00Z,30.2583,-88.2131,4.376,2.18,1111122 
DISL,ioos:station:DISL:KATA:1,2011-05-01T07:00:00Z,30.2583,-88.2131,4.401,2.28,1111122 
DISL,ioos:station:DISL:KATA:1,2011-05-01T07:30:00Z,30.2583,-88.2131,4.421,2.39,1111122 
DISL,ioos:station:DISL:KATA:1,2011-05-01T08:00:00Z,30.2583,-88.2131,4.427,2.67,1111122 
DISL,ioos:station:DISL:KATA:1,2011-05-01T08:30:00Z,30.2583,-88.2131,4.43,2.74,1111122 
DISL,ioos:station:DISL:KATA:1,2011-05-01T09:00:00Z,30.2583,-88.2131,4.433,2.87,1111122 
DISL,ioos:station:DISL:KATA:1,2011-05-01T09:30:00Z,30.2583,-88.2131,4.441,2.83,1111122 
DISL,ioos:station:DISL:KATA:1,2011-05-01T10:00:00Z,30.2583,-88.2131,4.452,2.83,1111122 
DISL,ioos:station:DISL:KATA:1,2011-05-01T10:30:00Z,30.2583,-88.2131,4.466,3.03,1111122 
DISL,ioos:station:DISL:KATA:1,2011-05-01T11:00:00Z,30.2583,-88.2131,4.479,3.25,1111122 
DISL,ioos:station:DISL:KATA:1,2011-05-01T11:30:00Z,30.2583,-88.2131,4.502,3.35,1111122 
DISL,ioos:station:DISL:KATA:1,2011-05-01T12:00:00Z,30.2583,-88.2131,4.539,3.45,1111122 
DISL,ioos:station:DISL:KATA:1,2011-05-01T12:30:00Z,30.2583,-88.2131,4.556,3.48,1111122 
DISL,ioos:station:DISL:KATA:1,2011-05-01T13:00:00Z,30.2583,-88.2131,4.579,2.57,1111122 
DISL,ioos:station:DISL:KATA:1,2011-05-01T13:30:00Z,30.2583,-88.2131,4.6,2.43,1111122 
DISL,ioos:station:DISL:KATA:1,2011-05-01T14:00:00Z,30.2583,-88.2131,4.597,2.41,1111122 
DISL,ioos:station:DISL:KATA:1,2011-05-01T14:30:00Z,30.2583,-88.2131,4.584,2.58,1111122 
DISL,ioos:station:DISL:KATA:1,2011-05-01T15:00:00Z,30.2583,-88.2131,4.564,2.56,1111122 
DISL,ioos:station:DISL:KATA:1,2011-05-01T15:30:00Z,30.2583,-88.2131,4.523,2.34,1111122 
DISL,ioos:station:DISL:KATA:1,2011-05-01T16:00:00Z,30.2583,-88.2131,4.497,2.34,1111122 
DISL,ioos:station:DISL:KATA:1,2011-05-01T16:30:00Z,30.2583,-88.2131,4.468,2.4,1111122 
DISL,ioos:station:DISL:KATA:1,2011-05-01T17:00:00Z,30.2583,-88.2131,4.438,2.76,1111122 
DISL,ioos:station:DISL:KATA:1,2011-05-01T17:30:00Z,30.2583,-88.2131,4.406,2.86,1111122 
DISL,ioos:station:DISL:KATA:1,2011-05-01T18:00:00Z,30.2583,-88.2131,4.362,2.87,1111122 
DISL,ioos:station:DISL:KATA:1,2011-05-01T18:30:00Z,30.2583,-88.2131,4.318,2.72,1111122 
DISL,ioos:station:DISL:KATA:1,2011-05-01T19:00:00Z,30.2583,-88.2131,4.285,2.54,1111122 
DISL,ioos:station:DISL:KATA:1,2011-05-01T19:30:00Z,30.2583,-88.2131,4.241,2.53,1111122 
DISL,ioos:station:DISL:KATA:1,2011-05-01T20:00:00Z,30.2583,-88.2131,4.198,2.46,1111122 
DISL,ioos:station:DISL:KATA:1,2011-05-01T20:30:00Z,30.2583,-88.2131,4.162,2.41,1111122 
DISL,ioos:station:DISL:KATA:1,2011-05-01T21:00:00Z,30.2583,-88.2131,4.125,2.42,1111122 
DISL,ioos:station:DISL:KATA:1,2011-05-01T21:30:00Z,30.2583,-88.2131,4.103,2.31,1111122 
DISL,ioos:station:DISL:KATA:1,2011-05-01T22:00:00Z,30.2583,-88.2131,4.087,2.23,1111122 
DISL,ioos:station:DISL:KATA:1,2011-05-01T22:30:00Z,30.2583,-88.2131,4.075,2.14,1111122 
DISL,ioos:station:DISL:KATA:1,2011-05-01T23:00:00Z,30.2583,-88.2131,4.07,2.14,1111122 
DISL,ioos:station:DISL:KATA:1,2011-05-01T23:30:00Z,30.2583,-88.2131,4.081,2.01,1111122 
DISL,ioos:station:DISL:KATA:1,2011-05-02T00:00:00Z,30.2583,-88.2131,4.1,2.29,1111122 
DISL,ioos:station:DISL:KATA:1,2011-05-02T00:30:00Z,30.2583,-88.2131,4.114,2.26,1111122 
DISL,ioos:station:DISL:KATA:1,2011-05-02T01:00:00Z,30.2583,-88.2131,4.146,2.44,1111122 
DISL,ioos:station:DISL:KATA:1,2011-05-02T01:30:00Z,30.2583,-88.2131,4.175,2.54,1111122 
DISL,ioos:station:DISL:KATA:1,2011-05-02T02:00:00Z,30.2583,-88.2131,4.208,2.55,1111122 
DISL,ioos:station:DISL:KATA:1,2011-05-02T02:30:00Z,30.2583,-88.2131,4.234,2.56,1111122 
DISL,ioos:station:DISL:KATA:1,2011-05-02T03:00:00Z,30.2583,-88.2131,4.256,2.54,1111122 
DISL,ioos:station:DISL:KATA:1,2011-05-02T03:30:00Z,30.2583,-88.2131,4.266,2.59,1111122 
DISL,ioos:station:DISL:KATA:1,2011-05-02T04:00:00Z,30.2583,-88.2131,4.29,2.66,1111122 
DISL,ioos:station:DISL:KATA:1,2011-05-02T04:30:00Z,30.2583,-88.2131,4.323,2.96,1111122 
DISL,ioos:station:DISL:KATA:1,2011-05-02T05:00:00Z,30.2583,-88.2131,4.358,3.55,1111122 
DISL,ioos:station:DISL:KATA:1,2011-05-02T05:30:00Z,30.2583,-88.2131,4.393,4.75,1111122 
DISL,ioos:station:DISL:KATA:1,2011-05-02T06:00:00Z,30.2583,-88.2131,4.438,4.97,1111122 
DISL,ioos:station:DISL:KATA:1,2011-05-02T06:30:00Z,30.2583,-88.2131,4.474,4.64,1111122 
DISL,ioos:station:DISL:KATA:1,2011-05-02T07:00:00Z,30.2583,-88.2131,4.519,4.65,1111122 
DISL,ioos:station:DISL:KATA:1,2011-05-02T07:30:00Z,30.2583,-88.2131,4.542,2.45,1111122 
DISL,ioos:station:DISL:KATA:1,2011-05-02T08:00:00Z,30.2583,-88.2131,4.568,1.99,1111122 
DISL,ioos:station:DISL:KATA:1,2011-05-02T08:30:00Z,30.2583,-88.2131,4.58,1.76,1111122 
DISL,ioos:station:DISL:KATA:1,2011-05-02T09:00:00Z,30.2583,-88.2131,4.585,1.77,1111122 
DISL,ioos:station:DISL:KATA:1,2011-05-02T09:30:00Z,30.2583,-88.2131,4.575,1.77,1111122 
DISL,ioos:station:DISL:KATA:1,2011-05-02T10:00:00Z,30.2583,-88.2131,4.563,1.49,1111122 
DISL,ioos:station:DISL:KATA:1,2011-05-02T10:30:00Z,30.2583,-88.2131,4.554,1.65,1111122 
DISL,ioos:station:DISL:KATA:1,2011-05-02T11:00:00Z,30.2583,-88.2131,4.558,1.65,1111122 
DISL,ioos:station:DISL:KATA:1,2011-05-02T11:30:00Z,30.2583,-88.2131,4.567,1.65,1111122 
DISL,ioos:station:DISL:KATA:1,2011-05-02T12:00:00Z,30.2583,-88.2131,4.582,1.73,1111122 
DISL,ioos:station:DISL:KATA:1,2011-05-02T12:30:00Z,30.2583,-88.2131,4.602,1.58,1111122 
DISL,ioos:station:DISL:KATA:1,2011-05-02T13:00:00Z,30.2583,-88.2131,4.612,1.49,1111122 
DISL,ioos:station:DISL:KATA:1,2011-05-02T13:30:00Z,30.2583,-88.2131,4.63,1.41,1111122 
DISL,ioos:station:DISL:KATA:1,2011-05-02T14:00:00Z,30.2583,-88.2131,4.637,1.49,1111122 
DISL,ioos:station:DISL:KATA:1,2011-05-02T14:30:00Z,30.2583,-88.2131,4.636,1.86,1111122 
DISL,ioos:station:DISL:KATA:1,2011-05-02T15:00:00Z,30.2583,-88.2131,4.618,2.15,1111122 
DISL,ioos:station:DISL:KATA:1,2011-05-02T15:30:00Z,30.2583,-88.2131,4.379,2.78,1111122 
DISL,ioos:station:DISL:KATA:1,2011-05-02T16:00:00Z,30.2583,-88.2131,4.437,2.35,1111122 
DISL,ioos:station:DISL:KATA:1,2011-05-02T16:30:00Z,30.2583,-88.2131,4.408,2.53,1111122 
DISL,ioos:station:DISL:KATA:1,2011-05-02T17:00:00Z,30.2583,-88.2131,4.375,2.84,1111122 
DISL,ioos:station:DISL:KATA:1,2011-05-02T17:30:00Z,30.2583,-88.2131,4.344,2.15,1111122 
DISL,ioos:station:DISL:KATA:1,2011-05-02T18:00:00Z,30.2583,-88.2131,4.307,2.1,1111122 
DISL,ioos:station:DISL:KATA:1,2011-05-02T18:30:00Z,30.2583,-88.2131,4.276,2.09,1111122 
DISL,ioos:station:DISL:KATA:1,2011-05-02T19:00:00Z,30.2583,-88.2131,4.241,2.05,1111122 
DISL,ioos:station:DISL:KATA:1,2011-05-02T19:30:00Z,30.2583,-88.2131,4.202,2.12,1111122 
DISL,ioos:station:DISL:KATA:1,2011-05-02T20:00:00Z,30.2583,-88.2131,4.159,2.18,1111122 
DISL,ioos:station:DISL:KATA:1,2011-05-02T20:30:00Z,30.2583,-88.2131,4.122,2.17,1111122 
DISL,ioos:station:DISL:KATA:1,2011-05-02T21:00:00Z,30.2583,-88.2131,4.083,2.09,1111122 
DISL,ioos:station:DISL:KATA:1,2011-05-02T21:30:00Z,30.2583,-88.2131,4.045,2.06,1111122 
DISL,ioos:station:DISL:KATA:1,2011-05-02T22:00:00Z,30.2583,-88.2131,4.002,2.13,1111122 
DISL,ioos:station:DISL:KATA:1,2011-05-02T22:30:00Z,30.2583,-88.2131,3.964,2.35,1111122 
DISL,ioos:station:DISL:KATA:1,2011-05-02T23:00:00Z,30.2583,-88.2131,3.934,2.35,1111122 
DISL,ioos:station:DISL:KATA:1,2011-05-02T23:30:00Z,30.2583,-88.2131,3.92,2.63,1111122 
DISL,ioos:station:DISL:KATA:1,2011-05-03T00:00:00Z,30.2583,-88.2131,3.917,2.6,1111122 
DISL,ioos:station:DISL:KATA:1,2011-05-03T00:30:00Z,30.2583,-88.2131,3.929,2.59,1111122 
DISL,ioos:station:DISL:KATA:1,2011-05-03T01:00:00Z,30.2583,-88.2131,3.947,2.57,1111122 
DISL,ioos:station:DISL:KATA:1,2011-05-03T01:30:00Z,30.2583,-88.2131,3.972,2.52,1111122 
DISL,ioos:station:DISL:KATA:1,2011-05-03T02:00:00Z,30.2583,-88.2131,3.998,2.51,1111122 
DISL,ioos:station:DISL:KATA:1,2011-05-03T02:30:00Z,30.2583,-88.2131,4.022,2.46,1111122 
DISL,ioos:station:DISL:KATA:1,2011-05-03T03:00:00Z,30.2583,-88.2131,4.048,2.5,1111122 
DISL,ioos:station:DISL:KATA:1,2011-05-03T03:30:00Z,30.2583,-88.2131,4.068,2.62,1111122 
DISL,ioos:station:DISL:KATA:1,2011-05-03T04:00:00Z,30.2583,-88.2131,4.078,2.75,1111122 
DISL,ioos:station:DISL:KATA:1,2011-05-03T04:30:00Z,30.2583,-88.2131,4.089,2.81,1111122 
DISL,ioos:station:DISL:KATA:1,2011-05-03T05:00:00Z,30.2583,-88.2131,4.111,3.59,1111122 
DISL,ioos:station:DISL:KATA:1,2011-05-03T05:30:00Z,30.2583,-88.2131,4.119,3.71,1111122 
DISL,ioos:station:DISL:KATA:1,2011-05-03T06:00:00Z,30.2583,-88.2131,4.147,3.78,1111122 
DISL,ioos:station:DISL:KATA:1,2011-05-03T06:30:00Z,30.2583,-88.2131,4.176,4.21,1111122 
DISL,ioos:station:DISL:KATA:1,2011-05-03T07:00:00Z,30.2583,-88.2131,4.202,4.66,1111122 
DISL,ioos:station:DISL:KATA:1,2011-05-03T07:30:00Z,30.2583,-88.2131,4.234,4.77,1111122 
DISL,ioos:station:DISL:KATA:1,2011-05-03T08:00:00Z,30.2583,-88.2131,4.268,4.81,1111122 
DISL,ioos:station:DISL:KATA:1,2011-05-03T08:30:00Z,30.2583,-88.2131,4.3,3.98,1111122 
DISL,ioos:station:DISL:KATA:1,2011-05-03T09:00:00Z,30.2583,-88.2131,4.328,3.88,1111122 
DISL,ioos:station:DISL:KATA:1,2011-05-03T09:30:00Z,30.2583,-88.2131,4.345,3.83,1111122 
DISL,ioos:station:DISL:KATA:1,2011-05-03T10:00:00Z,30.2583,-88.2131,4.352,3.79,1111122 
DISL,ioos:station:DISL:KATA:1,2011-05-03T10:30:00Z,30.2583,-88.2131,4.363,3.76,1111122 
DISL,ioos:station:DISL:KATA:1,2011-05-03T11:00:00Z,30.2583,-88.2131,4.384,3.81,1111122 
DISL,ioos:station:DISL:KATA:1,2011-05-03T11:30:00Z,30.2583,-88.2131,4.411,3.91,1111122 
DISL,ioos:station:DISL:KATA:1,2011-05-03T12:00:00Z,30.2583,-88.2131,4.448,4.28,1111122 
DISL,ioos:station:DISL:KATA:1,2011-05-03T12:30:00Z,30.2583,-88.2131,4.469,4.39,1111122 
DISL,ioos:station:DISL:KATA:1,2011-05-03T13:00:00Z,30.2583,-88.2131,4.491,4.42,1111122 
DISL,ioos:station:DISL:KATA:1,2011-05-03T13:30:00Z,30.2583,-88.2131,4.545,4.45,1111122 
DISL,ioos:station:DISL:KATA:1,2011-05-03T14:00:00Z,30.2583,-88.2131,4.57,4.53,1111122 
DISL,ioos:station:DISL:KATA:1,2011-05-03T14:30:00Z,30.2583,-88.2131,4.593,4.94,1111122 
DISL,ioos:station:DISL:KATA:1,2011-05-03T15:00:00Z,30.2583,-88.2131,4.584,5.16,1111122 
DISL,ioos:station:DISL:KATA:1,2011-05-03T15:30:00Z,30.2583,-88.2131,4.564,5.02,1111122 
DISL,ioos:station:DISL:KATA:1,2011-05-03T16:00:00Z,30.2583,-88.2131,4.559,4.83,1111122 
DISL,ioos:station:DISL:KATA:1,2011-05-03T16:30:00Z,30.2583,-88.2131,4.538,4.9,1111122 
DISL,ioos:station:DISL:KATA:1,2011-05-03T17:00:00Z,30.2583,-88.2131,4.507,4.85,1111122 
DISL,ioos:station:DISL:KATA:1,2011-05-03T17:30:00Z,30.2583,-88.2131,4.477,4.52,1111122 
DISL,ioos:station:DISL:KATA:1,2011-05-03T18:00:00Z,30.2583,-88.2131,4.467,4.46,1111122 
DISL,ioos:station:DISL:KATA:1,2011-05-03T18:30:00Z,30.2583,-88.2131,4.559,4.31,1111122 
DISL,ioos:station:DISL:KATA:1,2011-05-03T19:00:00Z,30.2583,-88.2131,4.447,4.38,1111122 
DISL,ioos:station:DISL:KATA:1,2011-05-03T19:30:00Z,30.2583,-88.2131,4.404,4.83,1111122 
DISL,ioos:station:DISL:KATA:1,2011-05-03T20:00:00Z,30.2583,-88.2131,4.318,5.75,1111122 
DISL,ioos:station:DISL:KATA:1,2011-05-03T20:30:00Z,30.2583,-88.2131,4.213,6.22,1111122 
DISL,ioos:station:DISL:KATA:1,2011-05-03T21:00:00Z,30.2583,-88.2131,4.136,7.62,1111122 
DISL,ioos:station:DISL:KATA:1,2011-05-03T21:30:00Z,30.2583,-88.2131,4.036,7.73,1111122 
DISL,ioos:station:DISL:KATA:1,2011-05-03T22:00:00Z,30.2583,-88.2131,3.985,8.06,1111122 
DISL,ioos:station:DISL:KATA:1,2011-05-03T22:30:00Z,30.2583,-88.2131,3.938,8.19,1111122 
DISL,ioos:station:DISL:KATA:1,2011-05-03T23:00:00Z,30.2583,-88.2131,3.872,8.01,1111122 
DISL,ioos:station:DISL:KATA:1,2011-05-03T23:30:00Z,30.2583,-88.2131,3.886,7.81,1111122 
DISL,ioos:station:DISL:KATA:1,2011-05-04T00:00:00Z,30.2583,-88.2131,3.881,7.85,1111122 
DISL,ioos:station:DISL:KATA:1,2011-05-04T00:30:00Z,30.2583,-88.2131,3.866,7.82,1111122 
DISL,ioos:station:DISL:KATA:1,2011-05-04T01:00:00Z,30.2583,-88.2131,3.868,7.98,1111122 
DISL,ioos:station:DISL:KATA:1,2011-05-04T01:30:00Z,30.2583,-88.2131,3.828,7.91,1111122 
DISL,ioos:station:DISL:KATA:1,2011-05-04T02:00:00Z,30.2583,-88.2131,3.833,7.64,1111122 
DISL,ioos:station:DISL:KATA:1,2011-05-04T02:30:00Z,30.2583,-88.2131,3.849,7.65,1111122 
DISL,ioos:station:DISL:KATA:1,2011-05-04T03:00:00Z,30.2583,-88.2131,3.879,7.81,1111122 
DISL,ioos:station:DISL:KATA:1,2011-05-04T03:30:00Z,30.2583,-88.2131,3.89,7.85,1111122 
DISL,ioos:station:DISL:KATA:1,2011-05-04T04:00:00Z,30.2583,-88.2131,3.92,7.83,1111122 
DISL,ioos:station:DISL:KATA:1,2011-05-04T04:30:00Z,30.2583,-88.2131,3.946,7.84,1111122 
DISL,ioos:station:DISL:KATA:1,2011-05-04T05:00:00Z,30.2583,-88.2131,3.976,7.83,1111122 
DISL,ioos:station:DISL:KATA:1,2011-05-04T05:30:00Z,30.2583,-88.2131,3.992,7.77,1111122 
DISL,ioos:station:DISL:KATA:1,2011-05-04T06:00:00Z,30.2583,-88.2131,4.024,7.78,1111122 
DISL,ioos:station:DISL:KATA:1,2011-05-04T06:30:00Z,30.2583,-88.2131,4.033,7.82,1111122 
DISL,ioos:station:DISL:KATA:1,2011-05-04T07:00:00Z,30.2583,-88.2131,4.038,6.3,1111122 
DISL,ioos:station:DISL:KATA:1,2011-05-04T07:30:00Z,30.2583,-88.2131,4.059,5.87,1111122 
DISL,ioos:station:DISL:KATA:1,2011-05-04T08:00:00Z,30.2583,-88.2131,4.109,6.06,1111122 
DISL,ioos:station:DISL:KATA:1,2011-05-04T08:30:00Z,30.2583,-88.2131,4.16,5.99,1111122 
DISL,ioos:station:DISL:KATA:1,2011-05-04T09:00:00Z,30.2583,-88.2131,4.203,6.41,1111122 
DISL,ioos:station:DISL:KATA:1,2011-05-04T09:30:00Z,30.2583,-88.2131,4.25,6.79,1111122 
DISL,ioos:station:DISL:KATA:1,2011-05-04T10:00:00Z,30.2583,-88.2131,4.297,7.02,1111122 
DISL,ioos:station:DISL:KATA:1,2011-05-04T10:30:00Z,30.2583,-88.2131,4.335,7.61,1111122 
DISL,ioos:station:DISL:KATA:1,2011-05-04T11:00:00Z,30.2583,-88.2131,4.389,7.71,1111122 
DISL,ioos:station:DISL:KATA:1,2011-05-04T11:30:00Z,30.2583,-88.2131,4.422,7.72,1111122 
DISL,ioos:station:DISL:KATA:1,2011-05-04T12:00:00Z,30.2583,-88.2131,4.455,7.58,1111122 
DISL,ioos:station:DISL:KATA:1,2011-05-04T12:30:00Z,30.2583,-88.2131,4.482,7.58,1111122 
DISL,ioos:station:DISL:KATA:1,2011-05-04T13:00:00Z,30.2583,-88.2131,4.519,7.6,1111122 
DISL,ioos:station:DISL:KATA:1,2011-05-04T13:30:00Z,30.2583,-88.2131,4.558,7.61,1111122 
DISL,ioos:station:DISL:KATA:1,2011-05-04T14:00:00Z,30.2583,-88.2131,4.615,7.69,1111122 
DISL,ioos:station:DISL:KATA:1,2011-05-04T14:30:00Z,30.2583,-88.2131,4.631,7.71,1111122 
DISL,ioos:station:DISL:KATA:1,2011-05-04T15:00:00Z,30.2583,-88.2131,4.65,7.81,1111122 
DISL,ioos:station:DISL:KATA:1,2011-05-04T15:30:00Z,30.2583,-88.2131,4.668,7.97,1111122 
DISL,ioos:station:DISL:KATA:1,2011-05-04T16:00:00Z,30.2583,-88.2131,4.662,8.07,1111122 
DISL,ioos:station:DISL:KATA:1,2011-05-04T16:30:00Z,30.2583,-88.2131,4.631,8.32,1111122 
DISL,ioos:station:DISL:KATA:1,2011-05-04T17:00:00Z,30.2583,-88.2131,4.583,8.39,1111122 
DISL,ioos:station:DISL:KATA:1,2011-05-04T17:30:00Z,30.2583,-88.2131,4.536,8.43,1111122 
DISL,ioos:station:DISL:KATA:1,2011-05-04T18:00:00Z,30.2583,-88.2131,4.534,8.55,1111122 
DISL,ioos:station:DISL:KATA:1,2011-05-04T18:30:00Z,30.2583,-88.2131,4.519,8.24,1111122 
DISL,ioos:station:DISL:KATA:1,2011-05-04T19:00:00Z,30.2583,-88.2131,4.515,8.31,1111122 
DISL,ioos:station:DISL:KATA:1,2011-05-04T19:30:00Z,30.2583,-88.2131,4.508,8.39,1111122 
DISL,ioos:station:DISL:KATA:1,2011-05-04T20:00:00Z,30.2583,-88.2131,4.475,8.33,1111122 
DISL,ioos:station:DISL:KATA:1,2011-05-04T20:30:00Z,30.2583,-88.2131,4.433,8.25,1111122 
DISL,ioos:station:DISL:KATA:1,2011-05-04T21:00:00Z,30.2583,-88.2131,4.359,8.61,1111122 
DISL,ioos:station:DISL:KATA:1,2011-05-04T21:30:00Z,30.2583,-88.2131,4.296,8.65,1111122 
DISL,ioos:station:DISL:KATA:1,2011-05-04T22:00:00Z,30.2583,-88.2131,4.222,9.09,1111122 
DISL,ioos:station:DISL:KATA:1,2011-05-04T22:30:00Z,30.2583,-88.2131,4.164,9.18,1111122 
DISL,ioos:station:DISL:KATA:1,2011-05-04T23:00:00Z,30.2583,-88.2131,4.1,9.32,1111122 
DISL,ioos:station:DISL:KATA:1,2011-05-04T23:30:00Z,30.2583,-88.2131,4.04,9.26,1111122 
DISL,ioos:station:DISL:KATA:1,2011-05-05T00:00:00Z,30.2583,-88.2131,3.993,9.31,1111122 
DISL,ioos:station:DISL:KATA:1,2011-05-05T00:30:00Z,30.2583,-88.2131,3.958,9.34,1111122 
DISL,ioos:station:DISL:KATA:1,2011-05-05T01:00:00Z,30.2583,-88.2131,3.936,9.36,1111122 
DISL,ioos:station:DISL:KATA:1,2011-05-05T01:30:00Z,30.2583,-88.2131,3.929,9.22,1111122 
DISL,ioos:station:DISL:KATA:1,2011-05-05T02:00:00Z,30.2583,-88.2131,3.923,9.15,1111122 
DISL,ioos:station:DISL:KATA:1,2011-05-05T02:30:00Z,30.2583,-88.2131,3.927,9.09,1111122 
DISL,ioos:station:DISL:KATA:1,2011-05-05T03:00:00Z,30.2583,-88.2131,3.931,8.99,1111122 
DISL,ioos:station:DISL:KATA:1,2011-05-05T03:30:00Z,30.2583,-88.2131,3.934,8.92,1111122 
DISL,ioos:station:DISL:KATA:1,2011-05-05T04:00:00Z,30.2583,-88.2131,3.953,8.89,1111122 
DISL,ioos:station:DISL:KATA:1,2011-05-05T04:30:00Z,30.2583,-88.2131,3.99,8.97,1111122 
DISL,ioos:station:DISL:KATA:1,2011-05-05T05:00:00Z,30.2583,-88.2131,4.009,8.81,1111122 
DISL,ioos:station:DISL:KATA:1,2011-05-05T05:30:00Z,30.2583,-88.2131,4.033,8.77,1111122 
DISL,ioos:station:DISL:KATA:1,2011-05-05T06:00:00Z,30.2583,-88.2131,4.051,8.57,1111122 
DISL,ioos:station:DISL:KATA:1,2011-05-05T06:30:00Z,30.2583,-88.2131,4.076,8.65,1111122 
DISL,ioos:station:DISL:KATA:1,2011-05-05T07:00:00Z,30.2583,-88.2131,4.105,8.47,1111122 
DISL,ioos:station:DISL:KATA:1,2011-05-05T07:30:00Z,30.2583,-88.2131,4.134,6.65,1111122 
DISL,ioos:station:DISL:KATA:1,2011-05-05T08:00:00Z,30.2583,-88.2131,4.137,4.71,1111122 
DISL,ioos:station:DISL:KATA:1,2011-05-05T08:30:00Z,30.2583,-88.2131,4.146,3.55,1111122 
DISL,ioos:station:DISL:KATA:1,2011-05-05T09:00:00Z,30.2583,-88.2131,4.158,3.14,1111122 
DISL,ioos:station:DISL:KATA:1,2011-05-05T09:30:00Z,30.2583,-88.2131,4.167,3.07,1111122 
DISL,ioos:station:DISL:KATA:1,2011-05-05T10:00:00Z,30.2583,-88.2131,4.176,3.12,1111122 
DISL,ioos:station:DISL:KATA:1,2011-05-05T10:30:00Z,30.2583,-88.2131,4.194,3.2,1111122 
DISL,ioos:station:DISL:KATA:1,2011-05-05T11:00:00Z,30.2583,-88.2131,4.196,3.17,1111122 
DISL,ioos:station:DISL:KATA:1,2011-05-05T11:30:00Z,30.2583,-88.2131,4.234,3.3,1111122 
DISL,ioos:station:DISL:KATA:1,2011-05-05T12:00:00Z,30.2583,-88.2131,4.268,3.33,1111122 
DISL,ioos:station:DISL:KATA:1,2011-05-05T12:30:00Z,30.2583,-88.2131,4.3,3.36,1111122 
DISL,ioos:station:DISL:KATA:1,2011-05-05T13:00:00Z,30.2583,-88.2131,4.341,3.49,1111122 
DISL,ioos:station:DISL:KATA:1,2011-05-05T13:30:00Z,30.2583,-88.2131,4.372,3.66,1111122 
DISL,ioos:station:DISL:KATA:1,2011-05-05T14:00:00Z,30.2583,-88.2131,4.409,3.71,1111122 
DISL,ioos:station:DISL:KATA:1,2011-05-05T14:30:00Z,30.2583,-88.2131,4.44,3.51,1111122 
DISL,ioos:station:DISL:KATA:1,2011-05-05T15:00:00Z,30.2583,-88.2131,4.461,3.4,1111122 
DISL,ioos:station:DISL:KATA:1,2011-05-05T15:30:00Z,30.2583,-88.2131,4.49,3.37,1111122 
DISL,ioos:station:DISL:KATA:1,2011-05-05T16:00:00Z,30.2583,-88.2131,4.502,3.33,1111122 
DISL,ioos:station:DISL:KATA:1,2011-05-05T16:30:00Z,30.2583,-88.2131,4.523,3.34,1111122 
DISL,ioos:station:DISL:KATA:1,2011-05-05T17:00:00Z,30.2583,-88.2131,4.536,3.36,1111122 
DISL,ioos:station:DISL:KATA:1,2011-05-05T17:30:00Z,30.2583,-88.2131,4.539,3.37,1111122 
DISL,ioos:station:DISL:KATA:1,2011-05-05T18:00:00Z,30.2583,-88.2131,4.531,3.28,1111122 
DISL,ioos:station:DISL:KATA:1,2011-05-05T18:30:00Z,30.2583,-88.2131,4.519,3.24,1111122 
DISL,ioos:station:DISL:KATA:1,2011-05-05T19:00:00Z,30.2583,-88.2131,4.499,3.26,1111122 
DISL,ioos:station:DISL:KATA:1,2011-05-05T19:30:00Z,30.2583,-88.2131,4.465,3.41,1111122 
DISL,ioos:station:DISL:KATA:1,2011-05-05T20:00:00Z,30.2583,-88.2131,4.418,3.39,1111122 
DISL,ioos:station:DISL:KATA:1,2011-05-05T20:30:00Z,30.2583,-88.2131,4.365,3.3,1111122 
DISL,ioos:station:DISL:KATA:1,2011-05-05T21:00:00Z,30.2583,-88.2131,4.318,3.34,1111122 
DISL,ioos:station:DISL:KATA:1,2011-05-05T21:30:00Z,30.2583,-88.2131,4.269,3.14,1111122 
DISL,ioos:station:DISL:KATA:1,2011-05-05T22:00:00Z,30.2583,-88.2131,4.217,3.09,1111122 
DISL,ioos:station:DISL:KATA:1,2011-05-05T22:30:00Z,30.2583,-88.2131,4.161,3.1,1111122 
DISL,ioos:station:DISL:KATA:1,2011-05-05T23:00:00Z,30.2583,-88.2131,4.114,3.06,1111122 
DISL,ioos:station:DISL:KATA:1,2011-05-05T23:30:00Z,30.2583,-88.2131,4.068,2.98,1111122 
DISL,ioos:station:DISL:KATA:1,2011-05-06T00:00:00Z,30.2583,-88.2131,4.024,2.94,1111122 
DISL,ioos:station:DISL:KATA:1,2011-05-06T00:30:00Z,30.2583,-88.2131,3.99,2.93,1111122 
DISL,ioos:station:DISL:KATA:1,2011-05-06T01:00:00Z,30.2583,-88.2131,3.962,2.89,1111122 
DISL,ioos:station:DISL:KATA:1,2011-05-06T01:30:00Z,30.2583,-88.2131,3.944,2.85,1111122 
DISL,ioos:station:DISL:KATA:1,2011-05-06T02:00:00Z,30.2583,-88.2131,3.937,2.75,1111122 
DISL,ioos:station:DISL:KATA:1,2011-05-06T02:30:00Z,30.2583,-88.2131,3.946,2.6,1111122 
DISL,ioos:station:DISL:KATA:1,2011-05-06T03:00:00Z,30.2583,-88.2131,3.96,2.55,1111122 
DISL,ioos:station:DISL:KATA:1,2011-05-06T03:30:00Z,30.2583,-88.2131,3.972,2.54,1111122 
DISL,ioos:station:DISL:KATA:1,2011-05-06T04:00:00Z,30.2583,-88.2131,3.988,2.52,1111122 
DISL,ioos:station:DISL:KATA:1,2011-05-06T04:30:00Z,30.2583,-88.2131,3.992,2.37,1111122 
DISL,ioos:station:DISL:KATA:1,2011-05-06T05:00:00Z,30.2583,-88.2131,4.004,2.4,1111122 
DISL,ioos:station:DISL:KATA:1,2011-05-06T05:30:00Z,30.2583,-88.2131,4.013,2.31,1111122 
DISL,ioos:station:DISL:KATA:1,2011-05-06T06:00:00Z,30.2583,-88.2131,4.011,2.21,1111122 
DISL,ioos:station:DISL:KATA:1,2011-05-06T06:30:00Z,30.2583,-88.2131,4.029,2.21,1111122 
DISL,ioos:station:DISL:KATA:1,2011-05-06T07:00:00Z,30.2583,-88.2131,4.05,2.24,1111122 
DISL,ioos:station:DISL:KATA:1,2011-05-06T07:30:00Z,30.2583,-88.2131,4.077,2.26,1111122 
DISL,ioos:station:DISL:KATA:1,2011-05-06T08:00:00Z,30.2583,-88.2131,4.108,2.27,1111122 
DISL,ioos:station:DISL:KATA:1,2011-05-06T08:30:00Z,30.2583,-88.2131,4.136,2.25,1111122 
DISL,ioos:station:DISL:KATA:1,2011-05-06T09:00:00Z,30.2583,-88.2131,4.153,2.24,1111122 
DISL,ioos:station:DISL:KATA:1,2011-05-06T09:30:00Z,30.2583,-88.2131,4.169,2.22,1111122 
DISL,ioos:station:DISL:KATA:1,2011-05-06T10:00:00Z,30.2583,-88.2131,4.19,2.19,1111122 
DISL,ioos:station:DISL:KATA:1,2011-05-06T10:30:00Z,30.2583,-88.2131,4.208,2.19,1111122 
DISL,ioos:station:DISL:KATA:1,2011-05-06T11:00:00Z,30.2583,-88.2131,4.232,2.25,1111122 
DISL,ioos:station:DISL:KATA:1,2011-05-06T11:30:00Z,30.2583,-88.2131,4.263,2.2,1111122 
DISL,ioos:station:DISL:KATA:1,2011-05-06T12:00:00Z,30.2583,-88.2131,4.297,2.25,1111122 
DISL,ioos:station:DISL:KATA:1,2011-05-06T13:30:00Z,30.2583,-88.2131,4.409,2.11,1111122 
DISL,ioos:station:DISL:KATA:1,2011-05-06T14:00:00Z,30.2583,-88.2131,4.445,2.05,1111122 
DISL,ioos:station:DISL:KATA:1,2011-05-06T14:30:00Z,30.2583,-88.2131,4.47,2.04,1111122 
DISL,ioos:station:DISL:KATA:1,2011-05-06T15:00:00Z,30.2583,-88.2131,4.489,1.93,1111122 
DISL,ioos:station:DISL:KATA:1,2011-05-06T15:30:00Z,30.2583,-88.2131,4.506,1.78,1111122 
DISL,ioos:station:DISL:KATA:1,2011-05-06T16:00:00Z,30.2583,-88.2131,4.52,1.71,1111122 
DISL,ioos:station:DISL:KATA:1,2011-05-06T16:30:00Z,30.2583,-88.2131,4.524,1.68,1111122 